Regional Weather Roundup
Issued by NWS

Home | Current Version | Previous Version | Text Only | Print | Product List | Glossary On
Versions: 1 2 3 4 5 6 7 8 9 10 11 12 13 14 15 16 17 18 19 20 21 22 23 24 25 26 27 28 29 30 31 32 33 34 35 36 37 38 39 40 41 42 43 44 45 46 47 48 49 50
000
ASUS43 KDTX 231210
RWRMI
MICHIGAN HOURLY REGIONAL WEATHER ROUNDUP
NATIONAL WEATHER SERVICE DETROIT/PONTIAC MI
800 AM EDT SAT SEP 23 2017

NOTE: "FAIR" INDICATES FEW OR NO CLOUDS BELOW 12,000 FEET WITH NO
SIGNIFICANT WEATHER AND/OR OBSTRUCTION TO VISIBILITY.

MIZ047>049-052>055-059>063-066>070-074>076-081>083-231300-
SOUTHEAST LOWER MICHIGAN

CITY           SKY/WX    TMP DP  RH WIND       PRES   REMARKS
ADRIAN         CLEAR     60  58  92 CALM      30.13R FOG
6HR MIN TEMP:  58; 6HR MAX TEMP:  66;

ALMA           PTCLDY    61  60  96 CALM      30.12R FOG
ANN ARBOR      CLEAR     60  60 100 CALM      30.13R FOG
BAD AXE        CLEAR     67  62  84 CALM      30.12S
CARO           CLEAR     64  62  91 CALM      30.12R
DETROIT CITY   CLEAR     65  62  90 N3        30.14R
6HR MIN TEMP:  64; 6HR MAX TEMP:  69;

DETROIT        PTCLDY    67  65  93 CALM      30.14R FOG
6HR MIN TEMP:  65; 6HR MAX TEMP:  70;

FLINT          CLOUDY    65  62  90 SE3       30.13R
6HR MIN TEMP:  63; 6HR MAX TEMP:  71;

GROSSE ILE     CLEAR     65  64  97 CALM      30.13R FOG
6HR MIN TEMP:  62; 6HR MAX TEMP:  66;

HILLSDALE      CLEAR     61  59  94 CALM      30.13R
HOWELL         CLEAR     64  62  94 CALM      30.14R FOG
6HR MIN TEMP:  63; 6HR MAX TEMP:  70;


CITY           SKY/WX    TMP DP  RH WIND       PRES   REMARKS
JACKSON        CLEAR     63  60  90 CALM      30.13R FOG
6HR MIN TEMP:  60; 6HR MAX TEMP:  71;

LAMBERTVILLE   CLEAR     62  60  93 CALM      30.12R FOG
6HR MIN TEMP:  62; 6HR MAX TEMP:  66;

LANSING        CLEAR     66  61  84 CALM      30.13R
6HR MIN TEMP:  64; 6HR MAX TEMP:  70;

LAPEER         FAIR      62  61  97 CALM      30.14R FOG
6HR MIN TEMP:  62; 6HR MAX TEMP:  68;

MASON          CLEAR     64  62  92 CALM      30.13S FOG
MONROE         PTCLDY    64  62  93 CALM      30.13R FOG
6HR MIN TEMP:  60; 6HR MAX TEMP:  65;

MT. CLEMENS    PTCLDY    64  64 100 CALM      30.12R FOG
6HR MIN TEMP:  62; 6HR MAX TEMP:  66;

PONTIAC        CLOUDY    67  65  93 CALM      30.13R
6HR MIN TEMP:  63; 6HR MAX TEMP:  70;

PORT HOPE        N/A     72  64  76 CALM      30.09R
6HR MIN TEMP:  70; 6HR MAX TEMP:  75;

PORT HURON     CLOUDY    64  63  94 CALM      30.14R FOG
TRI CITIES     CLEAR     69  66  90 S6        30.12R
6HR MIN TEMP:  68; 6HR MAX TEMP:  75;

MIDLAND        FAIR      62  62 100 CALM      30.10R FOG
6HR MIN TEMP:  60; 6HR MAX TEMP:  67;

TROY           CLEAR     67  64  87 CALM      30.15R
SAGINAW HB     CLEAR     66  63  88 W3        30.11R
$$
MIZ043>046-050>051-056>058-064>065-071>073-077>080-231300-
SOUTHWEST LOWER MICHIGAN

CITY           SKY/WX    TMP DP  RH WIND       PRES   REMARKS
BATTLE CREEK   CLEAR     66  64  93 CALM      30.13R FOG
6HR MIN TEMP:  65; 6HR MAX TEMP:  71;

BENTON HARBOR  CLEAR     68  65  90 CALM      30.10R FOG
6HR MIN TEMP:  66; 6HR MAX TEMP:  72;

BIG RAPIDS     CLEAR     59  58  95 CALM      30.11R FOG
6HR MIN TEMP:  59; 6HR MAX TEMP:  65;

COLDWATER      CLEAR     62  62 100 CALM      30.13R FOG
6HR MIN TEMP:  62; 6HR MAX TEMP:  70;

FREMONT        FAIR      65  65 100 CALM      30.10R
6HR MIN TEMP:  64; 6HR MAX TEMP:  69;

HOLLAND        CLEAR     69  65  86 S3        30.11R
6HR MIN TEMP:  66; 6HR MAX TEMP:  70;

GRAND RAPIDS   PTCLDY    68  66  93 CALM      30.11R
6HR MIN TEMP:  66; 6HR MAX TEMP:  70;

IONIA          FAIR      65  64  97 CALM      30.11R FOG
6HR MIN TEMP:  65; 6HR MAX TEMP:  73;

KALAMAZOO      CLEAR     67  63  87 CALM      30.12R
6HR MIN TEMP:  64; 6HR MAX TEMP:  71;

LUDINGTON      CLEAR     66  63  91 CALM      30.07R
6HR MIN TEMP:  64; 6HR MAX TEMP:  74;

MARSHALL       CLEAR     62  61  97 CALM      30.12R
6HR MIN TEMP:  60; 6HR MAX TEMP:  66;

MOUNT PLEASANT FOG       63  63 100 CALM      30.11R VSB 1/2
MUSKEGON       PTCLDY    69  65  86 SE3       30.10R
6HR MIN TEMP:  68; 6HR MAX TEMP:  72;

SOUTH HAVEN    CLEAR     67  65  93 CALM      30.10R FOG
$$
MIZ016>042-231300-
NORTHERN LOWER MICHIGAN

CITY           SKY/WX    TMP DP  RH WIND       PRES   REMARKS
ALPENA         CLEAR     65  63  93 CALM      30.08R
6HR MIN TEMP:  62; 6HR MAX TEMP:  68;

BEAVER ISLAND  CLOUDY    73  66  78 SW9G16    30.03R
6HR MIN TEMP:  69; 6HR MAX TEMP:  73;

BELLAIRE       CLEAR     61  59  94 CALM      30.07R FOG
6HR MIN TEMP:  60; 6HR MAX TEMP:  71;

CADILLAC       CLEAR     61  57  87 CALM      30.12R
CHARLEVOIX     CLEAR     73  64  74 S8        30.07S
FRANKFORT      CLEAR     76  66  70 SW3       30.06S
GAYLORD        CLEAR     66  61  84 W3        30.10S
6HR MIN TEMP:  64; 6HR MAX TEMP:  70;

GRAYLING       CLEAR     58  56  93 CALM      30.12R
6HR MIN TEMP:  57; 6HR MAX TEMP:  67;

HARBOR SPRINGS CLEAR     64  63  96 CALM      30.05R
HOUGHTON LAKE  CLEAR     59  57  93 CALM      30.12S
6HR MIN TEMP:  57; 6HR MAX TEMP:  67;

MANISTEE       CLEAR     62  61  96 NE5       30.07R FOG
OSCODA         PTCLDY    68  67  98 CALM      30.09R
6HR MIN TEMP:  64; 6HR MAX TEMP:  68;

PELLSTON       CLEAR     63  61  93 CALM      30.05R
6HR MIN TEMP:  59; 6HR MAX TEMP:  65;

ROGERS CITY    CLEAR     71  64  78 SW9       30.07R
TRAVERSE CITY  PTCLDY    71  64  78 CALM      30.05S
6HR MIN TEMP:  68; 6HR MAX TEMP:  71;

$$
MIZ007>008-015-231300-
EASTERN UPPER MICHIGAN

CITY           SKY/WX    TMP DP  RH WIND       PRES   REMARKS
KINROSS        CLOUDY    65  64  97 E3        30.05R
6HR MIN TEMP:  63; 6HR MAX TEMP:  67;

MACKINAC ISLAN CLEAR     71  64  78 S12       30.02S
6HR MIN TEMP:  68; 6HR MAX TEMP:  72;

NEWBERRY       CLOUDY    66  65  97 S6        30.01S
6HR MIN TEMP:  63; 6HR MAX TEMP:  67;

S. S. MARIE    CLEAR     66  64  93 E3        30.04R
6HR MIN TEMP:  65; 6HR MAX TEMP:  67;

MUNISING         N/A     68  67  96 VRB5      29.97R
6HR MIN TEMP:  66; 6HR MAX TEMP:  71;

$$
MIZ004>006-011>014-085-231300-
CENTRAL UPPER MICHIGAN

CITY           SKY/WX    TMP DP  RH WIND       PRES   REMARKS
MANISTIQUE     CLOUDY    65  59  80 S7        30.01R HAZE
6HR MIN TEMP:  65; 6HR MAX TEMP:  67;

ESCANABA       FOG       59  59 100 CALM      30.01R VSB<1/4
6HR MIN TEMP:  57; 6HR MAX TEMP:  69;

MENOMINEE      CLEAR     69  65  86 SW5       30.03R
6HR MIN TEMP:  68; 6HR MAX TEMP:  72;

SAWYER-GWINN   CLEAR     63  61  94 S8        30.00R FOG
$$
MIZ001>003-009>011-084-231300-
WESTERN UPPER MICHIGAN

CITY           SKY/WX    TMP DP  RH WIND       PRES   REMARKS
IRON MOUNTAIN  PTCLDY    71  63  75 VRB5      30.00R
6HR MIN TEMP:  59; 6HR MAX TEMP:  72;

HOUGHTON       MOCLDY    73  65  75 SW6       29.93R
6HR MIN TEMP:  62; 6HR MAX TEMP:  74;

COPPER HARBOR    N/A     73  66  78 W8        29.89R
6HR MIN TEMP:  65; 6HR MAX TEMP:  73; 6HR PCP:  0.21;

IRONWOOD       PTCLDY    75  67  76 SW10G17   29.95R
6HR MIN TEMP:  75; 6HR MAX TEMP:  78;

$$

ABBREVIATIONS USED IN REMARKS
   TC - TEMPERATURE IN CELSIUS
  WCI - WIND CHILL INDEX
   HX - HEAT INDEX
  VSB - VISIBILITY





USA.gov is the U.S. government's official web portal to all federal, state and local government web resources and services.